Wind_Speed
26 27 27 28 29 30 31 32 33 34 35 36 37 38 39 39 39 40 41 41 41 42 42 43 44 45 46 47 49 50 52 53 53 53 54 54 55 55 56 56 56 55 55
27 28 29 30 30 31 33 34 35 37 38 39 40 41 40 40 40 41 41 41 42 42 43 43 44 45 46 46 47 48 48 49 49 49 50 50 50 51 51 51 50 50 50
29 30 31 32 34 35 36 37 38 39 40 40 40 40 40 40 40 40 40 40 41 41 42 42 43 44 44 45 44 44 44 44 44 45 44 45 45 45 46 45 45 44 43
31 33 34 35 36 37 38 38 39 39 39 39 39 39 39 39 39 39 39 40 40 40 40 41 41 41 41 41 42 42 42 42 41 40 40 40 40 40 40 39 39 38 38
33 34 35 36 36 37 37 37 37 37 38 38 37 37 37 37 38 38 38 38 38 38 39 39 38 38 38 39 39 38 37 36 36 36 36 35 35 34 33 33 33 32 32
32 33 34 34 34 34 35 35 36 36 36 35 35 35 35 35 35 35 35 36 35 35 35 35 35 35 34 34 33 33 32 31 31 31 29 28 27 27 26 26 25 25 25
30 31 31 31 31 31 31 32 32 32 32 31 31 32 32 33 33 33 33 33 32 32 31 31 31 30 29 29 28 27 26 26 25 24 24 23 22 22 22 22 22 22 22
27 27 28 28 28 28 28 28 28 28 29 29 29 30 30 31 31 30 30 29 28 28 28 27 26 25 23 22 21 21 21 20 19 19 18 17 17 18 18 19 19 20 20
24 25 25 25 25 25 26 26 27 27 28 28 29 29 29 28 28 27 25 25 24 24 23 22 21 20 19 19 19 18 17 17 16 15 15 15 15 16 17 18 18 18 19
22 22 22 23 24 25 25 25 26 27 27 27 27 27 26 24 23 22 22 22 21 20 19 18 17 17 16 16 16 16 15 15 15 15 16 16 16 16 17 18 18 18 19
20 20 21 22 22 23 23 24 24 25 24 24 23 22 21 20 20 19 19 18 17 16 15 15 14 14 15 15 15 15 14 14 15 16 16 16 16 17 18 18 19 19 19
18 19 19 20 20 21 21 21 21 20 20 19 19 19 18 17 16 16 16 15 14 14 14 13 13 14 14 15 15 15 14 15 15 16 16 16 17 18 18 18 18 18 18
18 18 18 18 18 18 18 18 17 17 16 16 16 16 15 15 14 14 14 13 13 12 12 12 12 13 14 14 14 15 15 15 16 16 16 17 17 18 18 18 18 18 17
17 18 17 17 16 16 16 15 15 15 14 14 13 13 13 13 12 12 12 12 11 10 10 11 12 13 14 14 14 15 16 16 16 16 17 17 17 17 17 18 17 17 17
16 15 15 14 14 14 14 13 13 12 12 12 11 11 11 11 11 11 11 10 10 10 11 12 13 13 14 14 15 15 16 16 16 16 17 17 17 17 17 16 16 16 15
14 14 13 13 13 12 12 11 11 11 11 10 10 9 9 9 9 10 9 9 9 10 11 12 12 13 14 14 15 15 15 15 16 16 16 16 16 15 15 15 16 15 14
13 12 12 11 11 11 10 9 9 9 9 8 8 8 8 8 8 8 8 8 9 10 10 12 12 13 14 14 15 15 15 15 15 15 15 15 15 14 14 14 14 14 14
10 9 9 9 8 8 8 7 7 7 6 6 6 6 6 7 7 7 7 8 9 9 10 11 12 13 13 14 14 15 15 15 15 15 15 14 14 13 13 13 13 13 13
7 6 6 6 6 6 5 5 5 5 5 5 5 5 5 6 6 6 7 8 9 9 10 11 12 13 13 14 14 14 15 15 15 14 14 14 13 13 12 12 12 12 12
5 5 4 3 3 3 3 4 4 4 4 4 4 4 5 5 5 6 7 8 9 10 11 12 12 13 14 14 14 14 14 14 14 14 13 13 12 12 11 11 11 11 11
6 5 4 3 3 3 3 3 3 3 3 4 4 4 5 5 5 6 7 8 9 10 11 12 13 13 14 14 14 14 14 14 14 13 13 12 12 11 10 10 10 10 10
9 7 6 6 5 5 4 4 4 4 5 5 5 5 5 5 6 6 7 8 9 10 11 12 13 14 14 15 15 14 14 14 14 13 13 12 11 11 10 10 10 10 10
11 10 9 8 7 7 7 7 6 6 6 7 7 7 7 7 7 7 8 9 9 11 12 13 13 14 14 15 15 15 15 14 14 13 13 12 12 11 11 11 11 10 11
13 11 10 9 9 9 8 8 8 8 8 8 8 8 8 8 8 8 9 9 10 11 12 13 14 14 15 16 16 16 16 15 15 14 13 13 13 12 13 12 12 12 12
14 13 12 11 11 11 10 10 9 9 9 9 9 9 9 9 9 9 10 10 11 12 12 13 14 15 15 16 16 16 17 16 16 15 15 15 14 15 15 15 15 15 15
15 14 13 13 12 12 11 10 10 9 9 9 9 9 9 9 9 10 10 11 12 12 13 13 14 15 15 16 16 17 17 17 17 17 16 16 16 16 16 17 17 16 16
Wind_Direction
272 274 275 276 278 279 280 283 285 287 288 290 290 291 291 291 291 290 291 291 291 291 290 289 289 288 288 287 286 286 285 285 285 284 283 282 282 281 281 281 281 281 282
269 271 273 275 277 279 281 283 285 286 288 289 290 291 291 292 292 292 293 293 293 292 292 291 290 290 289 289 289 288 288 287 287 286 286 285 285 285 285 284 284 284 284
269 271 273 275 277 279 281 283 285 286 288 289 290 291 292 293 293 294 294 294 294 293 292 291 291 291 290 290 290 289 289 288 288 287 287 287 288 288 287 286 286 286 286
269 272 274 277 279 281 282 284 286 288 289 290 291 291 292 293 294 294 294 295 294 294 293 293 292 292 291 290 290 289 289 288 288 289 290 290 290 290 290 289 289 289 290
271 274 276 278 280 281 283 285 286 288 289 290 291 292 293 293 295 295 295 295 294 294 293 293 293 293 293 293 292 292 291 291 291 292 292 293 294 294 294 294 295 295 295
275 276 278 279 280 282 285 286 287 288 289 290 291 292 293 294 294 294 294 294 295 295 295 295 295 296 297 296 296 295 295 296 296 297 297 298 299 300 300 300 301 301 302
278 278 279 281 283 285 286 287 287 287 287 289 290 291 291 293 294 294 294 295 296 297 299 300 301 300 299 300 301 302 303 303 303 303 304 305 306 307 308 309 310 310 311
278 280 281 282 284 286 286 286 286 287 288 289 290 291 292 293 294 294 296 297 300 302 304 305 306 307 309 310 309 309 310 311 312 313 313 315 315 316 316 316 318 318 319
280 282 283 283 284 284 285 285 286 287 289 290 291 292 292 294 295 297 299 302 305 307 309 311 313 315 317 316 316 316 317 318 319 320 321 322 324 324 325 325 325 326 327
281 282 282 282 283 284 285 286 287 288 289 290 291 292 293 296 298 300 303 305 307 309 312 314 316 319 321 323 324 325 324 325 326 325 324 325 327 327 327 328 329 329 330
281 282 284 286 286 287 287 289 289 290 290 291 293 294 296 298 300 303 306 308 310 312 315 318 321 324 327 328 329 329 329 328 327 326 325 326 328 329 330 331 332 332 333
284 286 288 289 290 291 292 293 294 293 293 294 295 298 301 302 303 305 308 309 310 313 315 319 324 327 329 329 329 329 329 329 329 330 329 329 331 331 332 333 335 337 338
285 287 290 292 293 294 295 295 295 295 296 297 298 299 301 303 304 306 308 310 312 314 317 321 326 329 329 329 329 329 329 329 330 331 332 332 333 334 335 337 340 341 341
288 288 290 291 292 293 293 294 296 296 297 299 301 302 302 304 305 307 311 314 316 318 320 324 328 330 330 330 329 329 330 331 332 331 331 332 333 337 339 341 342 343 343
289 288 290 291 291 291 292 295 297 297 298 300 301 303 304 306 308 311 314 316 319 322 325 327 330 331 332 331 330 329 329 329 331 332 333 334 336 339 341 343 345 346 347
290 288 289 290 289 291 294 297 298 299 300 302 305 307 309 311 315 319 322 325 327 328 328 330 330 331 332 331 330 330 331 332 333 335 336 339 341 343 344 346 347 349 349
291 288 288 288 288 290 295 297 297 298 301 305 310 312 313 319 323 327 329 332 334 334 334 334 333 332 333 333 333 334 336 337 337 338 339 340 342 344 345 348 350 352 353
299 294 291 289 288 290 293 297 300 302 307 314 319 322 323 327 330 334 337 338 340 340 339 337 338 338 338 337 338 338 339 340 341 341 342 343 345 347 348 350 353 356 358
313 310 305 298 294 295 298 303 308 315 320 326 330 334 337 340 341 344 347 347 347 344 342 343 344 345 345 345 345 344 344 345 345 346 347 348 350 352 354 357 359 3 5
339 334 333 325 315 314 317 320 324 332 337 340 342 345 351 354 357 359 359 355 354 352 352 352 352 352 352 353 353 352 351 352 353 353 353 354 356 358 1 4 7 10 13
23 15 14 15 13 8 6 5 7 11 13 12 13 12 11 11 10 8 4 2 2 2 1 0 360 359 359 359 358 358 358 359 0 1 1 2 4 7 10 13 15 18 21
40 40 41 43 42 39 38 40 44 44 43 41 40 38 31 27 21 17 13 12 12 11 10 9 8 6 6 6 6 6 7 7 8 9 11 13 15 18 21 24 26 28 31
44 45 48 50 52 50 52 56 59 60 56 54 51 48 45 41 35 30 26 23 20 18 16 15 14 15 14 14 14 14 14 16 17 19 22 24 27 29 32 35 37 40 43
45 48 50 52 53 54 56 59 62 62 61 59 56 54 51 47 41 38 34 30 27 25 23 22 22 22 22 22 23 23 24 26 27 29 32 35 39 42 44 45 48 51 53
47 49 51 53 56 58 60 62 64 64 62 60 57 55 53 49 45 41 37 33 31 30 29 28 26 26 26 28 30 31 33 35 37 39 43 46 49 52 54 56 57 59 60
47 49 52 54 55 57 58 59 61 60 59 57 55 53 51 49 45 41 37 36 34 33 31 30 30 30 31 33 35 37 39 41 43 46 50 53 55 57 60 62 62 62 62
Height
5789 5790 5790 5790 5790 5790 5790 5790 5789 5787 5786 5784 5782 5781 5779 5777 5775 5772 5770 5767 5764 5761 5758 5754 5751 5747 5743 5739 5735 5731 5726 5721 5716 5711 5707 5702 5698 5693 5689 5685 5680 5676 5672
5783 5783 5783 5783 5783 5782 5782 5781 5780 5778 5776 5775 5773 5771 5768 5766 5764 5761 5758 5755 5752 5749 5745 5742 5738 5734 5730 5726 5721 5716 5712 5706 5702 5696 5691 5687 5682 5678 5674 5670 5666 5662 5658
5776 5776 5776 5775 5775 5774 5773 5772 5771 5769 5767 5764 5762 5760 5758 5755 5752 5750 5747 5744 5740 5737 5733 5730 5726 5721 5717 5712 5708 5703 5698 5693 5688 5683 5678 5673 5669 5665 5661 5657 5653 5650 5646
5768 5768 5767 5767 5766 5765 5764 5762 5761 5759 5756 5754 5752 5749 5747 5744 5742 5739 5736 5733 5729 5725 5721 5718 5713 5709 5704 5700 5695 5690 5685 5680 5676 5671 5666 5662 5658 5654 5650 5646 5643 5639 5636
5760 5760 5759 5758 5757 5756 5754 5753 5751 5749 5746 5744 5742 5739 5737 5734 5731 5728 5725 5722 5718 5714 5710 5706 5701 5697 5692 5687 5682 5678 5673 5669 5665 5660 5656 5652 5648 5644 5641 5637 5634 5631 5627
5751 5751 5750 5749 5748 5746 5745 5743 5741 5739 5737 5734 5732 5730 5727 5724 5721 5718 5715 5711 5707 5703 5699 5694 5690 5685 5680 5676 5672 5667 5664 5660 5655 5652 5648 5644 5641 5637 5634 5631 5628 5625 5621
5742 5742 5741 5740 5739 5737 5736 5734 5732 5730 5728 5726 5723 5721 5718 5715 5712 5708 5705 5702 5698 5693 5689 5685 5680 5675 5671 5667 5663 5660 5656 5652 5649 5645 5642 5638 5635 5632 5630 5627 5623 5620 5617
5735 5734 5733 5732 5730 5729 5727 5726 5724 5722 5720 5717 5715 5712 5709 5706 5703 5700 5696 5693 5689 5685 5681 5676 5672 5668 5665 5661 5658 5654 5651 5647 5643 5640 5637 5635 5632 5629 5626 5623 5620 5616 5613
5727 5726 5725 5724 5723 5721 5719 5718 5716 5714 5712 5709 5707 5704 5701 5698 5695 5692 5689 5685 5682 5678 5674 5670 5667 5663 5660 5657 5654 5650 5647 5644 5640 5638 5635 5632 5629 5626 5623 5620 5617 5613 5609
5721 5719 5718 5717 5715 5714 5712 5710 5708 5706 5704 5701 5699 5696 5693 5691 5688 5685 5682 5679 5676 5673 5669 5666 5663 5660 5657 5653 5650 5647 5644 5641 5638 5636 5633 5630 5627 5624 5621 5618 5614 5610 5606
5714 5713 5712 5710 5708 5706 5705 5703 5701 5699 5696 5694 5691 5689 5687 5685 5682 5680 5677 5674 5671 5668 5666 5663 5660 5657 5654 5651 5648 5645 5642 5639 5637 5634 5631 5628 5625 5622 5618 5615 5611 5607 5604
5709 5707 5705 5704 5702 5700 5698 5696 5694 5692 5690 5688 5686 5684 5682 5680 5678 5675 5673 5670 5668 5665 5663 5660 5658 5655 5652 5649 5647 5644 5641 5638 5635 5632 5629 5626 5622 5619 5616 5612 5608 5605 5601
5703 5701 5700 5698 5696 5694 5692 5690 5689 5687 5685 5683 5681 5680 5678 5676 5674 5672 5670 5667 5665 5663 5660 5658 5656 5653 5650 5648 5645 5642 5639 5636 5633 5630 5627 5624 5620 5617 5613 5609 5606 5602 5599
5698 5696 5694 5693 5691 5689 5688 5686 5684 5682 5681 5679 5678 5676 5675 5673 5671 5669 5667 5665 5663 5661 5658 5656 5654 5651 5649 5646 5643 5640 5637 5634 5631 5628 5625 5621 5618 5614 5611 5607 5604 5600 5597
5692 5691 5689 5688 5686 5685 5684 5682 5681 5679 5678 5676 5675 5673 5672 5670 5669 5667 5665 5663 5661 5659 5656 5654 5652 5649 5647 5644 5641 5638 5635 5632 5629 5625 5622 5619 5615 5612 5609 5606 5603 5599 5596
5688 5686 5685 5684 5682 5681 5680 5679 5677 5676 5675 5673 5672 5671 5669 5668 5666 5665 5663 5661 5659 5657 5655 5652 5650 5648 5645 5642 5639 5636 5633 5629 5626 5623 5620 5616 5613 5610 5607 5604 5601 5598 5595
5683 5682 5681 5679 5678 5677 5677 5676 5675 5673 5672 5671 5670 5668 5667 5666 5664 5663 5661 5659 5657 5655 5653 5651 5648 5646 5643 5640 5637 5634 5631 5627 5624 5621 5618 5615 5612 5609 5606 5603 5600 5597 5595
5678 5677 5677 5676 5675 5675 5674 5673 5672 5671 5670 5669 5668 5667 5666 5664 5663 5661 5660 5658 5656 5654 5652 5650 5647 5644 5641 5638 5635 5632 5629 5625 5622 5619 5616 5613 5610 5607 5605 5602 5599 5597 5594
5675 5675 5674 5673 5673 5673 5672 5672 5671 5670 5669 5668 5667 5666 5665 5663 5662 5660 5659 5657 5655 5653 5651 5648 5646 5643 5640 5637 5634 5630 5627 5624 5621 5618 5615 5612 5609 5607 5604 5601 5599 5597 5595
5673 5673 5672 5672 5672 5672 5671 5670 5670 5669 5668 5667 5666 5665 5664 5662 5661 5660 5658 5657 5655 5653 5650 5648 5645 5642 5639 5636 5633 5629 5626 5623 5620 5617 5614 5611 5608 5606 5604 5601 5599 5597 5595
5673 5672 5672 5672 5671 5671 5670 5670 5669 5668 5667 5666 5665 5664 5663 5662 5661 5660 5658 5657 5655 5652 5650 5647 5645 5642 5639 5635 5632 5629 5626 5623 5620 5617 5614 5611 5608 5606 5604 5602 5600 5598 5596
5674 5673 5673 5672 5672 5671 5670 5670 5669 5668 5667 5667 5666 5665 5664 5663 5661 5660 5659 5657 5655 5652 5650 5648 5645 5642 5639 5635 5632 5629 5626 5623 5620 5617 5614 5611 5609 5607 5605 5603 5601 5599 5597
5677 5675 5675 5674 5673 5672 5671 5671 5670 5669 5668 5667 5667 5666 5665 5663 5662 5661 5659 5657 5655 5653 5651 5648 5645 5642 5639 5636 5633 5630 5627 5623 5620 5618 5615 5613 5610 5608 5606 5604 5602 5601 5599
5680 5678 5677 5676 5675 5674 5673 5672 5672 5671 5670 5669 5668 5667 5666 5665 5663 5662 5660 5658 5656 5654 5652 5649 5647 5644 5641 5638 5635 5631 5628 5625 5622 5619 5617 5615 5612 5610 5608 5607 5605 5603 5602
5683 5681 5680 5678 5677 5676 5675 5675 5674 5673 5672 5671 5670 5669 5668 5667 5665 5664 5662 5660 5658 5656 5654 5651 5648 5646 5643 5640 5637 5634 5631 5628 5625 5622 5620 5618 5615 5613 5612 5610 5608 5607 5605
5686 5685 5683 5681 5680 5679 5678 5678 5677 5676 5675 5674 5673 5671 5670 5669 5667 5666 5664 5662 5660 5658 5655 5653 5650 5648 5645 5642 5640 5637 5634 5631 5629 5626 5624 5621 5619 5617 5616 5614 5612 5611 5610